SCP
0 0 0 0 0 0 0 0 0 0 0 0 0 0 0 0 0 0 0 0 0 0 0 0 0 0 0 0 0 0 0 0 0 0 0 0 0 0 0 0 0 0 0 0
0 0 0 0 0 0 0 0 0 0 0 0 0 0 0 0 0 0 0 0 0 0 0 0 0 0 0 0 0 0 0 0 0 0 0 0 0 0 0 0 0 0 0 0
0 0 0 0 0 0 0 0 0 0 0 0 0 0 0 0 0 0 0 0 0 0 0 0 0 0 0 0 0 0 0 0 0 0 0 0 0 0 0 0 0 0 0 0
0 0 0 0 0 0 0 0 0 0 0 0 0 0 0 0 0 0 0 0 0 0 0 0 0 0 0 0 0 0 0 0 0 0 0 0 0 0 0 0 0 0 0 0
0 0 0 0 0 0 0 0 0 0 0 0 0 0 0 0 0 0 0 0 0 0 0 0 0 0 0 0 0 0 0 0 0 0 0 0 0 0 0 0 0 0 0 0
0 0 0 0 0 0 0 0 0 0 0 0 0 0 0 0 0 0 0 0 0 0 0 0 0 0 0 0 0 0 0 0 0 0 0 0 0 0 0 0 0 0 0 0
0 0 0 0 0 0 0 0 0 0 0 0 0 0 0 0 0 0 0 0 0 0 0 0 0 0 0 0 0 0 0 0 0 0 0 0 0 0 0 0 0 0 0 0
0 0 0 0 0 0 0 0 0 0 0 0 0 0 0 0 0 0 0 0 0 0 0 0 0 0 0 0 0 0 0 0 0 0 0 0 0 0 0 0 0 0 0 0
0 0 0 0 0 0 0 0 0 0 0 0 0 0 0 0 0 0 0 0 0 0 0 0 0 0 0 0 0 0 0 0 0 0 0 0 0 0 0 0 0 0 0 0
0 0 0 0 0 0 0 0 0 0 0 0 0 0 0 0 0 0 0 0 0 0 0 0 0 0 0 0 0 0 0 0 0 0 0 0 0 0 0 0 0 0 0 0
0 0 0 0 0 0 0 0 0 0 0 0 0 0 0 0 0 0 0 0 0 0 0 0 0 0 0 0 0 0 0 0 0 0 0 0 0 0 0 0 0 0 0 0
0 0 0 0 0 0 0 0 0 0 0 0 0 0 0 0 0 0 0 0 0 0 0 0 0 0 0 0 0 0 0 0 0 0 0 0 0 0 0 0 0 0 0 0
0 0 0 0 0 0 0 0 0 0 0 0 0 0 0 0 0 0 0 0 0 0 0 0 0 0 0 0 0 0 0 0 0 0 0 0 0 0 0 0 0 0 0 0
0 0 0 0 0 0 0 0 0 0 0 0 0 0 0 0 0 0 0 0 0 0 0 0 0 0 0 0 0 0 0 0 0 0 0 0 0 0 0 0 0 0 0 0
0 0 0 0 0 0 0 0 0 0 0 0 0 0 0 0 0 0 0 0 0 0 0 0 0 0 0 0 0 0 0 0 0 0 0 0 0 0 0 0 0 0 0 0
0 0 0 0 0 0 0 0 0 0 0 0 0 0 0 0 0 0 0 0 0 0 0 0 0 0 0 0 0 0 0 0 0 0 0 0 0 0 0 0 0 0 0 0
0 0 0 0 0 0 0 0 0 0 0 0 0 0 0 0 0 0 0 0 0 0 0 0 0 0 0 0 0 0 0 0 0 0 0 0 0 0 0 0 0 0 0 0
0 0 0 0 0 0 0 0 0 0 0 0 0 0 0 0 0 0 0 0 0 0 0 0 0 0 0 0 0 0 0 0 0 0 0 0 0 0 0 0 0 0 0 0
0 0 0 0 0 0 0 0 0 0 0 0 0 0 0 0 0 0 0 0 0 0 0 0 0 0 0 0 0 0 0 0 0 0 0 0 0 0 0 0 0 0 0 0
0 0 0 0 0 0 0 0 0 0 0 0 0 0 0 0 0 0 0 0 0 0 0 0 0 0 0 0 0 0 0 0 0 0 0 0 0 0 0 0 0 0 0 0
0 0 0 0 0 0 0 0 0 0 0 0 0 0 0 0 0 0 0 0 0 0 0 0 0 0 0 0 0 0 0 0 0 0 0 0 0 0 0 0 0 0 0 0
0 0 0 0 0 0 0 0 0 0 0 0 0 0 0 0 0 0 0 0 0 0 0 0 0 0 0 0 0 0 0 0 0 0 0 0 0 0 0 0 0 0 0 0
0 0 0 0 0 0 0 0 0 0 0 0 0 0 0 0 0 0 0 0 0 0 0 0 0 0 0 0 0 0 0 0 0 0 0 0 0 0 0 0 0 0 0 0
0 0 0 0 0 0 0 0 0 0 0 0 0 0 0 0 0 0 0 0 0 0 0 0 0 0 0 0 0 0 0 0 0 0 0 0 0 0 0 0 0 0 0 0
0 0 0 0 0 0 0 0 0 0 0 0 0 0 0 0 0 0 0 0 0 0 0 0 0 0 0 0 0 0 0 0 0 0 0 0 0 0 0 0 0 0 0 0
0 0 0 0 0 0 0 0 0 0 0 0 0 0 0 0 0 0 0 0 0 0 0 0 0 0 0 0 0 0 0 0 0 0 0 0 0 0 0 0 0 0 0 0
0 0 0 0 0 0 0 0 0 0 0 0 0 0 0 0 0 0 0 0 0 0 0 0 0 0 0 0 0 0 0 0 0 0 0 0 0 0 0 0 0 0 0 0
Wind_Speed
5 5 6 7 9 11 12 12 11 10 11 14 11 9 8 6 5 5 6 8 10 10 10 9 10 9 9 9 9 9 9 8 7 6 5 5 4 4 4 4 4 4 4 5
5 5 6 5 7 10 11 10 10 9 12 12 8 5 6 7 6 7 9 9 9 9 9 11 11 11 10 10 9 9 9 8 6 6 5 5 4 4 3 4 4 4 5 5
5 3 2 8 10 11 8 9 10 14 16 10 6 8 8 7 7 9 9 8 9 10 10 11 11 11 12 10 9 9 8 7 6 6 5 5 4 4 4 4 4 5 6 6
5 5 9 10 5 9 10 10 11 9 9 8 9 7 6 6 7 8 7 7 7 7 7 7 7 7 8 8 9 8 7 6 6 6 5 4 4 4 5 4 4 5 6 7
5 6 8 8 5 8 9 10 10 12 11 8 2 2 5 6 6 7 6 5 5 5 5 6 7 8 9 8 7 7 7 7 6 6 5 4 5 5 4 4 5 6 6 7
6 6 9 9 5 5 5 7 8 9 10 6 5 1 6 2 3 3 2 2 3 4 5 6 6 8 9 8 7 7 7 6 5 5 5 5 6 5 4 4 6 6 7 7
6 6 9 8 3 7 6 10 4 6 7 7 8 7 3 0 1 2 2 3 4 5 5 5 7 8 8 7 7 6 5 4 4 4 5 5 4 4 4 5 5 6 8 8
7 6 10 6 8 10 10 4 3 4 5 7 7 3 1 1 2 3 3 4 5 5 4 4 6 7 7 6 4 4 4 4 4 4 3 3 4 5 5 5 6 7 7 8
11 10 6 8 9 7 4 5 4 4 4 5 5 4 3 3 3 3 3 4 4 5 5 4 4 5 6 4 4 4 3 3 3 3 4 4 4 5 5 4 5 6 6 8
4 7 6 6 5 4 5 5 4 4 5 7 6 5 4 3 3 3 3 4 4 5 5 4 3 3 4 4 4 4 3 3 3 3 4 4 4 4 5 5 6 6 7 8
5 5 3 5 8 8 6 5 4 4 5 6 6 5 5 4 4 4 4 3 4 5 5 4 3 3 3 3 4 3 3 3 3 4 4 5 5 5 6 7 8 8 7 8
8 9 8 7 5 7 7 7 7 6 4 3 5 5 5 4 4 4 4 4 4 4 4 3 3 3 2 3 3 3 3 4 3 4 4 4 5 6 11 13 17 19 20 17
5 4 5 2 1 4 5 5 5 6 5 4 3 4 5 4 3 4 4 4 5 4 3 3 2 2 2 2 3 4 4 4 4 4 4 5 5 6 8 10 14 18 20 22
3 4 3 3 3 3 4 4 5 4 3 4 4 4 4 4 4 4 4 4 3 3 3 2 2 3 2 2 3 4 4 6 6 5 5 5 6 7 7 9 10 8 11 18
4 4 4 4 4 4 4 5 6 4 4 3 4 4 5 5 4 3 2 3 3 2 2 2 2 3 2 2 3 4 4 4 4 5 5 6 6 7 7 9 10 10 8 10
4 4 4 5 5 5 5 5 6 4 4 4 4 4 4 4 4 3 2 3 2 2 2 2 4 4 2 3 3 4 4 9 9 6 5 6 6 7 8 9 10 10 10 9
8 6 6 5 5 5 4 4 5 5 4 4 4 4 5 5 4 3 1 1 1 2 2 3 4 4 3 3 4 4 4 7 12 8 6 7 7 8 8 9 10 10 10 12
6 7 7 7 7 6 5 5 5 5 4 4 5 5 5 4 2 1 0 1 1 2 3 4 4 4 4 4 4 4 5 5 6 7 7 7 8 8 9 9 10 12 11 12
5 6 6 6 6 7 6 5 5 5 5 5 5 4 3 2 2 1 1 1 2 4 4 3 7 5 5 6 8 5 6 7 8 8 8 12 12 8 9 10 11 11 12 11
7 8 9 8 7 7 7 6 6 6 5 5 5 4 3 2 1 1 1 2 3 4 4 6 6 5 5 7 10 5 6 8 9 9 9 9 9 10 10 10 11 11 11 11
9 10 10 10 9 8 7 6 7 6 4 4 4 3 2 1 1 1 1 4 4 4 5 9 6 5 6 8 12 6 7 8 9 9 9 10 10 11 11 11 11 12 12 11
8 10 10 9 9 8 6 5 6 6 5 4 4 3 2 2 2 2 3 4 5 8 6 4 5 9 12 14 7 6 7 8 9 9 9 10 10 11 12 12 12 12 12 11
9 9 9 9 8 7 6 6 5 5 4 3 2 2 1 2 2 3 5 3 4 10 8 5 11 17 20 11 6 7 8 9 9 9 10 10 11 11 12 13 12 12 11 11
9 9 9 7 7 8 6 4 4 3 3 2 1 1 2 2 3 3 4 9 12 14 8 11 18 20 19 7 6 8 9 9 10 10 11 11 11 11 11 12 12 11 12 13
9 8 7 7 7 5 4 3 4 3 3 2 2 2 2 2 3 5 5 7 12 14 8 11 18 20 12 7 8 9 9 10 11 12 10 10 11 11 12 12 12 12 12 12
7 6 5 5 4 3 2 2 2 2 2 3 3 3 3 3 4 5 5 7 9 13 10 8 9 12 8 9 10 10 10 12 12 11 11 12 13 13 12 12 14 13 12 12
7 5 5 4 4 3 3 2 2 2 3 3 5 4 5 5 5 6 7 7 8 8 8 8 8 8 9 10 10 11 10 10 11 11 11 12 12 12 12 14 13 12 12 12
Wind_Direction
196 179 164 188 193 185 197 204 209 227 231 249 253 256 265 270 264 240 227 213 205 203 198 190 186 184 182 179 173 168 167 174 183 180 177 180 190 202 210 219 230 237 248 258
205 197 189 215 214 200 213 220 230 248 260 252 253 252 259 257 248 243 237 225 214 205 197 193 190 186 181 179 175 169 174 181 176 173 179 190 201 208 219 234 243 245 251 257
207 182 160 245 213 198 204 206 197 224 241 252 253 247 246 249 240 238 238 229 215 206 201 197 191 183 182 177 166 169 175 175 175 178 188 201 205 212 228 239 243 253 256 256
147 139 223 240 205 195 206 224 210 223 239 238 234 245 246 233 232 241 235 224 213 201 196 188 176 168 160 155 162 169 173 177 180 183 195 202 209 226 237 238 244 251 256 257
149 197 259 287 241 184 193 246 221 222 241 245 235 309 284 239 220 228 224 210 201 189 177 163 160 155 148 153 159 167 179 186 188 187 194 205 221 235 239 242 251 252 255 259
148 180 227 239 228 169 135 264 243 208 226 222 140 205 267 266 208 211 182 161 151 140 136 147 152 146 148 157 165 184 190 191 188 188 196 212 227 239 241 241 252 259 262 259
163 202 249 244 184 125 165 238 237 192 200 179 186 208 236 130 142 140 123 119 124 129 136 147 144 143 152 163 186 190 177 175 186 196 206 220 232 240 247 253 261 264 268 269
158 192 243 211 149 182 211 209 181 182 185 186 203 208 189 169 150 131 120 120 127 129 129 134 144 148 158 181 182 160 163 179 199 210 220 224 234 251 252 254 265 271 274 277
186 207 219 180 193 210 183 186 195 188 190 175 180 197 190 178 163 148 140 137 133 135 132 136 151 156 167 178 159 158 170 197 215 226 232 230 234 250 259 253 258 270 272 278
208 245 234 223 227 226 203 205 199 183 172 168 180 188 184 176 170 162 153 150 140 140 146 159 164 161 166 164 161 164 193 219 228 237 249 245 240 242 249 254 258 265 270 274
217 250 266 253 224 215 203 199 181 172 177 181 175 181 182 181 180 173 162 152 150 158 164 171 164 168 170 169 164 183 213 232 243 243 248 257 251 243 248 241 244 260 263 263
207 208 193 222 218 189 185 196 190 174 172 175 177 178 169 176 175 165 160 151 151 160 164 169 169 183 191 186 181 192 230 245 247 251 254 256 266 277 263 262 272 273 274 274
196 186 182 201 168 169 180 190 178 172 171 164 162 159 156 158 157 151 151 156 167 173 172 169 178 207 218 205 201 213 234 250 254 253 257 261 263 272 284 284 276 278 279 282
171 137 159 194 189 163 149 138 128 120 122 131 136 131 132 132 135 150 165 172 160 152 159 170 197 234 233 216 220 234 243 257 262 253 255 259 262 265 271 281 290 282 277 280
190 178 173 151 124 119 121 121 119 122 120 111 118 127 135 141 152 160 148 133 128 137 170 195 234 255 247 228 237 247 252 256 256 255 256 258 262 266 269 272 278 284 283 280
161 133 129 139 149 142 136 141 144 152 144 136 129 129 130 127 120 112 111 123 136 197 233 244 257 263 259 252 256 259 257 273 279 271 263 265 265 268 271 274 277 280 282 283
149 165 170 170 169 162 159 158 153 148 139 135 134 122 112 108 103 100 97 101 178 242 249 252 262 271 267 259 256 261 263 274 283 282 270 270 270 270 271 273 275 278 279 281
179 178 171 164 161 151 138 128 126 127 129 129 119 112 112 118 127 132 53 8 349 313 281 265 267 275 268 265 264 263 267 270 270 270 273 272 273 270 271 274 276 278 281 284
137 134 129 127 131 130 127 122 118 114 112 115 114 114 110 105 101 87 36 351 314 299 292 285 299 298 281 278 287 268 268 273 276 275 274 280 283 276 274 275 277 279 281 282
110 110 108 103 99 106 109 108 106 98 96 104 104 96 82 63 54 26 332 281 260 259 273 289 294 283 280 280 291 274 269 273 277 280 279 277 278 279 277 277 278 280 280 280
111 110 108 105 96 90 95 103 104 100 91 91 96 95 78 19 358 333 305 296 287 279 288 300 299 287 287 288 292 278 274 277 279 280 281 281 281 281 281 280 280 280 280 280
107 107 105 104 100 89 79 84 92 94 86 75 70 69 49 355 330 308 270 262 283 304 307 290 286 292 298 300 289 280 280 282 283 282 281 280 281 282 282 281 280 280 280 279
99 100 99 98 100 97 82 72 74 79 75 65 50 25 346 307 299 299 303 295 297 306 308 289 297 303 306 304 288 285 285 284 283 283 282 281 280 280 280 280 279 279 278 278
96 93 93 93 92 88 77 60 55 55 52 35 9 332 314 312 303 274 272 301 310 309 303 298 305 307 310 303 292 289 286 284 283 282 281 280 279 279 279 280 279 278 277 277
93 91 90 87 82 79 78 65 51 40 27 7 339 322 304 279 282 297 297 297 304 310 302 303 306 308 307 293 290 288 286 283 283 285 283 285 284 284 282 280 279 279 278 277
85 83 79 77 80 78 64 52 38 11 357 341 329 320 312 302 293 294 296 295 294 303 304 299 297 300 294 289 288 288 287 290 291 287 283 283 283 282 281 281 279 278 277 276
79 77 75 67 55 47 42 33 15 348 337 324 314 311 311 310 307 304 302 301 300 299 298 296 294 292 292 291 290 288 287 286 285 284 284 283 282 282 282 281 281 279 278 276